GFSNE_925_temp_021.txt.gz
Temp
22 22 22 22 22 22 22 22 22 17 16 22 22 23 23 22 22 22 22 21 21 21 20 20 20 20 19 19 19 19 19 19 19 19 19 19 19 19
22 21 21 21 21 21 22 22 22 21 17 22 22 22 22 22 22 21 21 21 21 21 20 20 20 20 20 19 19 19 19 19 19 19 19 19 19 19
22 21 21 21 21 21 21 21 21 21 19 21 21 22 22 22 21 21 21 21 21 21 20 20 20 20 19 19 19 19 19 19 19 19 19 19 19 19
22 21 21 21 21 21 21 21 21 21 20 20 21 21 21 21 21 21 21 21 20 20 20 20 20 19 19 19 19 19 19 19 20 20 20 19 19 19
22 22 22 21 21 21 21 21 21 21 20 19 20 20 20 20 21 21 20 20 20 19 19 19 18 18 18 18 18 18 18 18 18 18 18 18 18 18
22 22 22 21 21 21 21 21 21 20 20 19 19 19 19 19 19 20 20 20 19 19 18 18 18 18 17 17 17 17 18 17 17 17 17 18 18 18
21 21 22 21 22 21 21 21 21 20 19 18 17 17 18 19 17 17 18 18 18 18 18 18 17 17 17 17 17 17 17 17 17 17 17 17 17 17
21 22 21 21 21 21 21 21 21 20 19 18 18 18 19 18 17 17 16 16 15 17 17 17 16 17 18 17 17 17 17 17 16 16 16 16 16 16
21 21 21 21 21 21 21 21 20 20 19 19 19 19 18 18 17 16 16 15 15 17 15 15 16 16 17 17 17 17 16 16 16 16 16 16 15 15
21 21 21 21 21 21 21 20 20 20 19 19 19 19 18 18 17 16 16 15 15 16 15 13 16 16 17 17 16 16 16 16 16 16 16 15 15 15
20 20 20 20 20 21 20 20 20 19 19 19 19 19 18 17 16 16 16 15 13 15 16 14 15 16 16 16 16 16 16 16 15 15 15 15 14 14
21 20 20 20 20 20 20 20 19 19 19 19 19 18 17 17 16 16 16 14 13 13 16 14 15 14 13 15 16 15 15 15 15 15 15 15 14 14
20 20 20 20 20 20 20 19 19 20 19 18 17 17 17 16 16 16 16 16 15 14 16 14 14 14 13 13 14 15 15 15 15 15 15 15 14 13
20 20 20 20 20 19 19 19 19 19 18 17 16 17 16 16 16 16 16 16 16 15 15 15 13 14 12 11 12 14 15 15 14 14 14 13 12 12
20 19 19 19 19 19 19 18 17 18 17 17 17 17 16 16 16 16 16 15 15 15 15 15 15 14 13 12 11 13 13 13 14 13 12 11 10 10
19 18 18 18 18 18 18 16 16 16 17 17 16 16 15 15 15 15 15 15 15 15 15 15 15 14 13 14 13 13 14 11 13 12 10 9 9 9
18 17 17 17 17 16 16 16 16 16 17 16 16 15 15 15 15 15 14 14 13 13 14 15 15 15 15 14 14 14 13 12 11 10 9 8 8 8
16 16 16 16 17 17 17 17 17 16 16 15 15 14 15 15 14 14 14 13 13 13 13 14 14 14 14 15 14 13 12 11 10 8 8 6 7 7
17 16 17 17 17 17 17 17 16 16 16 15 14 14 14 14 13 13 13 13 13 13 14 14 13 11 6 7 12 12 11 10 8 7 6 6 6 6
17 17 17 17 17 18 17 17 16 16 16 14 14 14 14 13 13 13 13 12 12 12 13 14 13 12 9 7 9 11 11 9 8 6 6 5 6 6
16 17 17 17 18 17 17 17 17 16 15 15 14 14 14 13 13 13 13 12 12 11 11 13 13 13 12 10 9 10 11 9 8 6 5 5 5 5
17 17 17 17 17 17 17 16 16 15 14 14 14 14 13 13 13 13 12 12 12 11 11 13 13 13 11 10 8 8 8 8 9 7 6 6 4 4
18 18 17 17 17 17 16 16 15 14 14 14 14 14 13 13 12 12 12 12 12 12 12 13 13 12 11 9 8 8 7 7 6 6 6 6 4 4

GFSNE_925_temp_024.txt.gz
Temp
22 22 22 22 22 22 22 22 22 20 19 22 22 22 22 23 22 21 22 21 21 21 20 20 20 20 19 19 19 19 19 19 19 19 19 19 19 18
22 21 21 21 21 21 21 22 21 21 20 22 22 22 22 22 22 22 21 21 21 21 20 20 20 20 20 19 19 19 19 19 19 20 20 19 19 19
21 21 21 21 21 21 21 21 21 21 20 21 21 21 21 22 21 21 20 20 21 20 20 20 20 19 19 19 19 19 19 19 19 19 19 20 20 19
22 21 21 21 21 21 21 20 21 21 20 20 21 21 21 21 21 21 20 20 20 20 20 19 19 19 19 19 18 18 18 18 18 18 18 19 19 19
22 22 22 21 21 20 20 20 20 20 20 19 20 20 20 20 20 20 20 20 20 20 19 19 18 18 18 18 18 17 17 17 17 18 18 18 18 18
22 22 22 21 21 21 20 20 20 20 19 19 18 19 18 19 19 19 19 19 19 19 19 18 18 18 17 17 17 17 17 17 17 17 17 17 17 17
22 22 22 21 21 21 21 21 20 20 19 18 18 17 17 18 18 18 18 18 18 18 18 18 18 18 18 17 17 17 17 17 17 17 17 16 16 16
22 22 21 21 21 21 21 20 20 20 19 18 18 17 17 18 18 18 17 16 16 17 17 17 17 17 17 17 17 17 17 17 16 16 16 16 16 16
22 21 21 21 21 21 21 20 20 19 19 19 18 18 19 19 18 17 17 16 15 16 15 14 16 16 17 17 17 17 17 16 16 16 16 15 15 15
23 22 22 21 21 21 20 20 20 20 20 20 19 19 19 18 18 17 17 15 15 16 15 13 15 16 16 17 17 17 17 16 16 16 16 15 15 15
22 21 21 21 21 20 20 19 19 19 19 19 18 18 18 18 17 16 15 14 14 14 15 13 15 15 15 16 16 16 16 15 15 15 15 15 15 14
19 20 21 20 20 19 19 19 19 19 19 18 18 17 17 17 16 16 16 14 13 14 16 14 15 14 15 15 15 15 15 15 15 15 14 15 14 13
18 19 19 19 19 19 19 19 20 20 19 18 17 17 17 17 17 16 16 16 15 14 15 14 13 13 12 12 14 15 15 15 15 14 14 14 13 13
19 20 20 19 19 19 19 19 19 18 18 17 17 17 17 17 16 16 16 16 16 15 15 14 12 13 12 11 12 14 15 15 15 14 13 13 13 13
21 20 20 19 19 19 19 19 18 18 18 17 16 17 17 16 16 15 15 15 15 15 15 14 14 13 13 12 11 12 12 13 13 13 11 11 10 10
19 19 19 19 19 19 18 18 17 17 17 17 16 16 16 15 15 15 15 15 15 15 15 15 14 13 13 13 12 12 13 11 11 11 10 10 10 10
18 17 18 18 18 17 16 16 16 16 16 16 16 16 15 15 14 14 14 14 13 13 14 14 14 14 14 13 12 13 12 11 11 10 9 10 9 9
17 16 16 17 17 16 15 15 15 15 15 16 15 15 15 14 14 13 13 13 12 12 12 13 13 13 13 14 14 13 11 10 10 9 8 8 9 9
17 16 16 16 16 16 16 16 16 16 16 16 15 15 14 14 14 13 13 12 12 12 13 13 12 10 11 13 12 12 10 10 9 9 9 8 8 7
18 17 17 17 16 16 16 17 16 16 16 15 15 14 14 14 13 13 12 12 11 11 12 13 12 10 9 11 9 10 10 9 9 8 8 7 7 6
16 16 17 17 17 17 17 17 17 17 17 16 15 14 14 13 13 13 12 12 12 11 11 12 13 12 12 10 10 11 10 10 9 7 7 7 7 6
17 17 17 17 17 17 17 17 17 16 16 15 14 14 13 13 13 13 12 12 11 11 11 12 13 12 11 10 10 9 9 9 8 7 6 6 5 5
17 17 17 18 18 17 17 17 17 16 15 15 14 14 13 13 13 12 12 12 11 11 11 11 12 12 11 10 8 9 8 8 7 7 7 6 5 4

GFSNE_925_temp_030.txt.gz
Temp
23 23 23 25 25 25 25 26 27 28 28 25 26 25 24 24 23 22 22 22 21 21 21 21 21 21 21 21 20 20 20 19 19 19 19 19 19 19
24 24 23 25 25 25 25 25 25 26 27 27 26 25 24 24 23 22 22 22 22 22 21 21 21 21 21 20 20 20 20 20 20 19 19 19 19 19
23 24 22 23 25 25 24 25 25 25 26 27 25 24 22 22 23 22 22 22 23 22 21 21 21 21 20 20 20 19 19 19 19 19 19 18 18 19
23 23 23 23 22 23 24 24 24 25 25 25 25 24 21 22 22 21 22 23 23 21 21 20 20 20 20 19 19 19 19 19 18 18 18 18 18 17
24 23 23 23 22 24 23 24 23 23 23 24 25 24 24 22 21 21 21 21 22 21 20 20 20 19 19 18 19 19 18 18 18 18 18 17 17 17
24 24 23 23 23 22 22 22 23 24 23 23 24 24 23 23 22 23 23 21 22 22 21 20 20 19 18 18 18 18 18 18 17 17 17 17 17 17
24 24 23 23 23 22 22 22 23 22 24 24 24 24 24 24 23 23 22 21 23 21 21 21 20 19 19 19 19 18 18 17 17 17 16 16 16 16
24 24 23 23 22 22 22 23 22 22 23 24 24 25 24 23 22 22 22 23 23 22 20 21 21 21 21 21 20 19 18 17 16 16 16 16 16 16
24 24 24 24 22 21 20 22 22 21 21 22 22 23 23 22 21 20 21 21 21 22 19 21 22 22 21 21 19 18 17 17 16 16 16 16 16 16
25 24 24 25 23 21 21 19 20 20 20 20 21 21 21 21 19 20 20 19 20 20 20 19 21 21 20 20 19 18 17 16 16 16 16 15 15 15
25 24 24 24 23 22 21 21 21 21 21 20 20 20 20 19 19 20 20 19 21 22 20 20 20 20 20 19 19 18 17 16 16 16 16 15 15 15
25 24 24 24 23 22 20 21 21 21 19 19 19 19 19 18 18 18 20 21 22 22 20 20 20 20 20 20 19 18 18 17 17 16 16 16 16 15
27 25 25 22 22 21 21 20 20 21 20 20 19 19 19 18 18 17 19 20 21 22 18 18 19 19 19 19 19 19 18 18 18 17 17 16 16 15
27 27 25 23 21 20 21 20 19 20 20 21 21 21 20 20 20 19 18 19 19 18 17 16 17 18 18 18 19 19 18 18 17 17 17 17 16 15
27 26 23 22 21 19 20 19 19 20 22 22 21 21 21 21 20 18 17 16 16 16 16 15 16 17 17 18 18 18 18 18 18 18 17 17 17 16
23 22 21 20 19 18 18 18 18 21 21 21 21 21 21 20 19 19 19 18 18 19 16 15 14 14 16 17 17 17 17 17 17 17 17 16 16 16
19 19 18 17 16 17 16 17 18 20 20 21 21 21 20 19 20 19 19 19 19 19 19 17 15 14 15 15 16 16 17 17 17 17 15 16 15 15
17 16 16 16 16 16 16 16 18 19 20 20 20 20 20 20 20 19 19 19 19 19 19 18 17 17 17 17 16 17 17 16 16 16 15 15 16 15
18 17 17 16 16 16 16 17 18 18 19 19 20 20 20 20 19 19 18 18 18 18 18 17 17 17 18 19 18 15 15 15 15 15 15 15 14 14
18 17 18 17 17 16 16 17 18 19 19 19 20 20 20 20 19 19 19 19 18 18 18 17 17 17 17 17 17 16 15 14 15 14 14 13 13 13
18 18 17 17 18 17 18 19 19 19 19 19 19 20 19 19 19 19 19 18 17 18 17 17 17 15 15 15 16 17 17 15 14 13 13 12 13 12
17 18 18 17 18 19 19 20 19 19 19 19 19 19 19 19 19 19 19 18 17 17 17 17 17 15 15 16 17 17 16 16 14 14 13 12 11 11
18 18 18 17 19 20 19 19 20 19 19 19 19 19 19 19 19 19 18 18 18 18 17 17 17 17 16 16 16 16 16 16 15 14 14 12 11 9

GFSNE_925_temp_033.txt.gz
Temp
24 24 24 27 27 27 27 27 28 28 29 25 27 26 26 25 24 23 23 23 22 22 21 21 21 21 21 21 20 20 20 20 20 19 19 19 19 19
25 25 24 26 27 27 27 27 27 27 28 29 27 27 25 26 24 23 23 23 22 22 22 22 22 22 21 21 21 20 20 19 19 19 19 19 18 18
25 25 24 24 27 27 27 27 27 27 27 28 28 25 24 23 23 23 23 23 23 23 22 22 22 21 21 21 20 20 19 19 19 19 18 18 18 18
24 25 25 24 23 25 26 26 26 27 26 26 27 25 24 23 22 22 22 24 24 23 22 21 21 21 21 20 20 19 19 19 19 19 18 18 18 17
25 24 24 24 24 25 25 26 26 25 25 25 26 26 25 23 23 22 22 22 22 23 22 22 21 21 20 20 19 19 19 19 18 18 18 18 18 17
25 25 24 24 24 23 24 24 25 25 25 25 25 26 26 25 24 24 23 22 23 23 23 23 22 21 20 20 19 19 19 18 18 18 18 17 17 17
26 25 25 24 24 23 23 24 24 24 25 26 25 25 26 26 25 24 24 24 23 23 23 23 23 22 21 20 21 20 18 18 17 17 17 17 17 17
26 26 25 25 24 24 23 24 23 24 24 25 26 26 25 25 25 24 24 23 23 23 23 22 22 21 21 22 21 19 18 18 17 17 16 16 16 16
26 26 26 26 24 23 23 23 23 23 23 23 23 24 25 24 24 22 22 22 22 22 21 22 22 22 23 21 20 20 19 18 17 17 16 16 16 16
26 26 26 26 26 23 23 22 22 22 22 22 22 22 22 23 21 21 21 20 20 20 21 21 22 22 22 22 20 20 19 18 17 17 16 16 16 16
26 26 26 26 26 24 23 23 21 21 21 21 22 22 22 22 21 21 21 20 20 21 21 21 22 22 22 21 21 19 19 19 18 17 17 17 16 16
26 26 26 25 25 25 23 23 23 21 21 21 20 20 20 21 20 20 21 21 20 21 21 22 22 21 21 21 21 20 20 19 19 18 18 17 17 16
27 27 26 25 25 25 24 23 23 22 21 21 19 19 18 19 19 19 19 20 22 22 20 21 21 21 21 21 21 20 20 20 19 19 18 18 17 16
28 28 28 26 25 24 24 23 22 22 21 20 19 20 20 20 21 20 19 19 20 20 18 19 19 20 20 20 20 20 19 19 19 18 18 18 18 18
27 29 28 28 26 24 23 22 21 21 20 19 20 21 22 21 21 20 19 19 18 18 18 17 17 18 18 18 19 19 19 19 19 18 18 18 18 17
24 26 27 28 27 22 22 21 20 19 20 20 21 22 21 21 20 20 19 18 18 19 18 17 16 16 17 17 18 18 18 18 18 18 18 17 17 17
22 21 20 18 18 18 19 19 18 18 19 20 20 19 20 21 21 20 20 19 19 20 20 17 16 16 16 16 17 17 18 18 18 18 17 17 16 17
21 19 18 18 18 17 17 17 18 18 18 18 19 18 19 20 21 20 20 20 21 21 20 20 17 17 18 17 17 18 18 18 17 17 16 16 16 16
20 19 19 18 18 17 17 17 17 18 18 18 19 19 20 21 20 20 20 20 20 20 20 20 19 19 19 20 19 18 17 17 17 16 16 15 15 15
20 19 18 18 18 17 17 18 18 18 17 18 19 19 20 21 20 20 21 20 20 20 20 19 19 18 18 19 18 17 16 16 16 16 15 15 14 14
19 18 18 18 17 17 18 18 18 18 19 18 19 20 21 21 21 21 21 21 20 20 20 19 19 18 17 17 17 18 18 17 16 15 15 14 14 14
19 19 18 17 17 18 18 18 18 19 19 19 20 21 21 21 21 21 21 21 19 19 19 19 17 17 17 17 18 18 18 17 16 16 15 14 13 13
17 18 18 18 18 19 19 19 20 20 20 20 21 20 20 21 21 21 21 21 20 19 18 19 19 18 17 18 17 18 17 17 18 17 16 15 14 13